Regional Weather Roundup
Issued by NWS

Home | Current Version | Previous Version | Text Only | Print | Product List | Glossary Off
Versions: 1 2 3 4 5 6 7 8 9 10 11 12 13 14 15 16 17 18 19 20 21 22 23 24 25 26 27 28 29 30 31 32 33 34 35 36 37 38 39 40 41 42 43 44 45 46 47 48 49 50

000
ASUS43 KMKX 060521
RWRWI

WISCONSIN REGIONAL WEATHER ROUNDUP
NATIONAL WEATHER SERVICE MILWAUKEE/SULLIVAN WI
1200 AM CDT FRI MAY 06 2016

NOTE: "FAIR" INDICATES FEW OR NO CLOUDS BELOW 12,000 FEET WITH NO
SIGNIFICANT WEATHER AND/OR OBSTRUCTIONS TO VISIBILITY.

WIZ001-002-006>008-014>016-023>028-060600-
NORTHWEST WISCONSIN

CITY           SKY/WX    TMP DP  RH WIND       PRES   REMARKS
SUPERIOR ARPT  CLEAR     64  42  44 SW8       29.77S
ASHLAND        PTCLDY    60  40  47 S6        29.81S
HAYWARD        CLEAR     58  39  49 S5        29.85F
SIREN          CLEAR     65  38  37 SW8       29.84F
CUMBERLAND     PTCLDY    54  37  54 S3        29.87S
RICE LAKE      PTCLDY    56  40  56 CALM      29.88F
CHETEK         PTCLDY    54  47  78 CALM      29.87F
LADYSMITH      CLEAR     56  39  52 SE3       29.90S
EAU CLAIRE     PTCLDY    56  40  55 SW3       29.88F
MENOMONIE      CLEAR     55  40  58 SE5       29.88F
NEW RICHMOND   CLEAR     58  39  50 SW6       29.88S
OSCEOLA        CLEAR     61  40  46 SW3       29.89S
$$

WIZ003>005-009-010-017-018-060600-
NORTH CENTRAL WISCONSIN

CITY           SKY/WX    TMP DP  RH WIND       PRES   REMARKS
MANITOWISH WTR CLEAR     52  39  61 S5        29.88F
ARBOR VITAE    CLEAR     54  40  58 S3        29.90S
WOODRUFF       CLEAR     54  40  58 S3        29.90S
RHINELANDER    CLEAR     52  37  56 SW5       29.91F
EAGLE RIVER    CLEAR     52  37  55 CALM      29.90S
LAND O LAKES   CLEAR     53  38  55 SW5       29.90F
PHILLIPS       CLEAR     53  38  56 S5        29.89S
TOMAHAWK       CLEAR     45  38  77 CALM      29.91F
MEDFORD        PTCLDY    52  40  64 S7        29.91S
MERRILL        CLEAR     48  42  79 CALM      29.93S
$$

WIZ029-030-035-036-043>047-060600-
CENTRAL WISCONSIN

CITY           SKY/WX    TMP DP  RH WIND       PRES   REMARKS
WAUSAU         CLEAR     56  44  64 S3        29.91F
MOSINEE        CLEAR     52  37  58 S5        29.94S
MARSHFIELD     PTCLDY    54  39  57 S5        29.91F
STEVENS POINT  PTCLDY    45  36  69 CALM      29.94S
WAUPACA        CLOUDY    52  37  57 CALM      29.93F
WAUTOMA        CLOUDY    48  38  68 CALM      29.95F
WISC RAPIDS    PTCLDY    52  38  58 S3        29.94S
CAMP DOUGLAS     N/A     50  48  94 E7        29.94R
$$

WIZ011>013-019>022-031-037>040-048>050-060600-
NORTHEAST WISCONSIN

CITY           SKY/WX    TMP DP  RH WIND       PRES   REMARKS
ANTIGO         CLEAR     49  39  69 CALM      29.92F
SHAWANO        MOCLDY    58  35  42 CALM      29.91F
OCONTO         CLOUDY    50  46  84 S6        29.91F
STURGEON BAY   MOCLDY    48  37  66 S12       29.93F
GREEN BAY      MOCLDY    52  43  71 S7        29.92F
MANITOWOC      CLOUDY    47  39  74 VRB5      29.95F
APPLETON       PTCLDY    50  36  57 CALM      29.92S
CLINTONVILLE   MOCLDY    55  34  44 SW6       29.91F
OSHKOSH        CLEAR     49  38  65 S8        29.93F
$$

WIZ032>034-041-042-053>061-060600-
SOUTHWEST WISCONSIN

CITY           SKY/WX    TMP DP  RH WIND       PRES   REMARKS
LA CROSSE      CLEAR     58  44  60 S6        29.92F
SPARTA         CLEAR     47  41  77 CALM      29.94S HAZE
VIROQUA        CLEAR     57  37  46 S6        29.95S
BOSCOBEL       PTCLDY    52  42  69 SW3       29.96F
PRAIRIE DU CHI MOCLDY    53  43  66 CALM      29.96S
PLATTEVILLE    CLEAR     55  37  50 S5        29.97F
$$

WIZ056-057-062-063-064-067-068-060600-
SOUTH CENTRAL WISCONSIN

CITY           SKY/WX    TMP DP  RH WIND       PRES   REMARKS
REEDSBURG      PTCLDY    52  41  66 CALM      29.95S
BARABOO/DELLS  PTCLDY    49  38  66 CALM      29.95S
LONE ROCK      CLOUDY    51  44  77 CALM      29.97S
MINERAL POINT  PTCLDY    59  28  31 SW6       29.97S
MADISON        CLEAR     46  36  68 CALM      29.96F
MIDDLETON      CLEAR     46  41  81 CALM      29.97S
WATERTOWN      CLEAR     45  39  79 CALM      29.96S
MONROE         CLEAR     55  34  44 W12       29.97S
JANESVILLE     CLEAR     48  39  71 CALM      29.97S
$$

WIZ051-052-058>065-066-070>072-060600-
SOUTHEAST WISCONSIN

CITY           SKY/WX    TMP DP  RH WIND       PRES   REMARKS
MILWAUKEE      PTCLDY    47  37  68 SW3       29.98S
WAUKESHA       CLEAR     45  37  76 CALM      29.98S
MILWAUKEE/TIMM CLEAR     45  36  70 CALM      29.98S
RACINE         CLEAR     42  36  79 CALM      29.99S
BURLINGTON     CLEAR     41  41  99 CALM      29.98S
KENOSHA        CLEAR     42  36  79 CALM      29.98S
FOND DU LAC    CLEAR     48  39  71 S7        29.95S
SHEBOYGAN      CLEAR     42  37  82 S5        29.95F
WEST BEND      CLEAR     45  37  76 CALM      29.96F
JUNEAU         CLEAR     47  38  69 SE7       29.97S
$$

LSZ147-162-060600-
LAKE SUPERIOR

STATION/POSITION TIME  TEMP    WIND        PRES    WAVE
                       AIR SEA DIR/SP/G            HT/PER
                 (UTC) (F)     (DEG/KT/KT) (MB)    (FT/S)
W MID LAKE BUOY  0450   47 37  170/ 10/ 10 1009.2F   0
DEVILS ISLAND    0500   59     290/  2/  2 1008.5F
PORT WING        0500   44      50/  6/ 21 1008.8
SAXON HARBOR     0440   65     180/  8/ 13 1008.8F
$$

LMZ867-665-643>646-060600-
LAKE MICHIGAN

STATION/POSITION TIME  TEMP    WIND        PRES    WAVE
                       AIR SEA DIR/SP/G            HT/PER
                 (UTC) (F)     (DEG/KT/KT) (MB)    (FT/S)
CHAMBERS ISLAND  0400   49     160/  5/  9 1013.2F
N MID LAKE BUOY  0450   41 39  200/ 10/ 10 1013.3F   0
NORTHPORT PIER   0400   48     190/  5/  8 1013.2F
ALGOMA LAKESHORE 0400          220/  8/  9   N/A
KEWAUNEE LAKESHO 0500   48      CALM  /  3 1013.0F
SHEBOYGAN LAKESH 0500   46     200/  7/  8 1014.9F
PORT WASHINGTON  0440   45     270/  3/  3 1015.6F
S MID LAKE BUOY  0450   41 40  240/  4/  6 1015.2F   1/ 5
KENOSHA   LAKESH 0500   49     210/  4/  5 1015.2S
$$

TC  - TEMPERATURE IN CELSIUS
VSB - VISIBILITY IN STATUTE MILES
WCI - WIND CHILL INDEX
HX  - HEAT INDEX




USA.gov is the U.S. government's official web portal to all federal, state and local government web resources and services.